Starlink 31207

operational
NORAD ID: 59035 Int'l Des: 2024-038 Owner: SPXS Country: US Constellation: starlink
LEOCIRCULAR

Starlink 31207について

説明を読み込み中...

リアルタイム位置

3D地球を読み込み中...

次回通過

高度履歴

Altitude vs Time

uPlot chart will show altitude changes over time

軌道要素

1 59035U 24038N 25260.12236342 -.00001784 00000-0 -55321-4 0 9999
2 59035 43.0049 283.7588 0001463 275.6890 84.3795 15.27568856 88315
Epoch: Sep 17, 2025 • Age: 20 hours

現在のステータス

高度 487.9 km
速度 7.62 km/s
衛星直下点 -23.16°S, 93.04°W
打ち上げ日 Feb 25, 2024
運用期間 1.5 years
タイプ internet

技術仕様

分類 Payload
質量 730.00 kg
乾燥質量 700.00 kg
総質量 730.00 kg
長さ 0.30 m
直径 4.10 m
スパン 29.00 m
形状 Box + pan
製造者 SPXS
バスタイプ Starlink V2M
フェーズステータス In Orbit
所有者/国 SPXS/US

大規模コンステレーション

Loading constellations...